[[{"header":{"parameterUnit":"m.s-1","parameterCategory":1,"la1":30.2991,"la2":30.254,"lo1":-89.0895,"lo2":-89.0444,"dy":0.0017,"dx":0.0017,"nx":28,"ny":28,"refTime":"2024-05-28T21:00:00:Z","depth":0,"parameterNumber":2,"parameterNumberName":"U-component_of_WINDS"},"data":[0,0,0,0,0,0,0,0,0,0,0,0,0,0,0,0,0,0,0,0,0,0,0,0,0,0,0,0,0,0,0,0,0,0,0,0,0,0,0,0,0,0,0,0,0,0,0,0,0,0,0,0,0,0,0,0,0,0,0.1838,0.1838,0,0.1875,0.1875,0.1876,0.1885,0.1885,0.1884,0.1884,0.1922,0.1923,0.1924,0,0,0,0,0,0,0,0,0,0,0,0,0,0.1774,0.1775,0.1838,0.1838,0.1839,0.1875,0.1875,0.1876,0.1885,0.1885,0.1884,0.1884,0.1921,0.1923,0.1924,0,0,0,0,0,0,0,0,0,0,0,0,0,0.1806,0.1776,0.1838,0.1848,0.1849,0.1875,0.1875,0.1876,0.1885,0.1885,0.1884,0.1884,0.1921,0.1923,0.1925,0.1943,0,0,0.193,0.1931,0,0,0,0,0,0,0,0,0.1804,0.1808,0.1846,0.1847,0.1848,0.1875,0.1867,0.1898,0.1885,0.1871,0.1884,0.1884,0.1907,0.191,0.1917,0.1945,0.1946,0.193,0.1931,0.1932,0.1933,0,0,0,0,0,0,0,0.1802,0.1806,0.1852,0.1846,0.1848,0.185,0.1854,0.1873,0.189,0.1872,0.1873,0.1877,0.1907,0.1915,0.1918,0.1947,0.193,0.1932,0.1933,0.1934,0.1991,0.1991,0,0,0,0,0,0,0.1798,0.1805,0.1851,0.1854,0.1825,0.1851,0.1856,0.1867,0.189,0.1893,0.1878,0.1878,0.1912,0.1916,0.192,0.1942,0.1932,0.1934,0.1935,0.199,0.1991,0.1991,0,0,0,0,0,0,0.1796,0.1802,0.185,0.1829,0.1836,0.1853,0.1865,0.1868,0.1876,0.1894,0.1897,0.1883,0.1912,0.1917,0.1937,0.1943,0.1935,0.1936,0.199,0.199,0.1991,0.1987,0,0,0,0,0,0,0.1795,0.1801,0.1809,0.1829,0.1837,0.1867,0.1865,0.1869,0.1879,0.1879,0.19,0.1903,0.1912,0.1934,0.1939,0.1946,0.1938,0.1989,0.199,0.1991,0.1987,0.1988,0.1988,0,0,0,0,0,0.1792,0.1806,0.1809,0.1815,0.1846,0.1867,0.1871,0.1882,0.188,0.1887,0.1899,0.1902,0.1942,0.1936,0.1941,0.1949,0.1989,0.199,0.1991,0.1986,0.1987,0.1988,0,0,0,0,0,0,0.1786,0.1809,0.1812,0.1834,0.1848,0.1868,0.1878,0.1882,0.1898,0.1898,0.191,0.1915,0.1934,0.1943,0.1936,0.1968,0.1965,0.1967,0.196,0.1962,0.1962,0.1959,0.1939,0,0,0,0,0,0.1787,0.1802,0.1822,0.1838,0.1846,0.1861,0.187,0.1877,0.1893,0.1899,0.1912,0.1927,0.1943,0.1953,0.1968,0.1989,0.1993,0.1996,0.1997,0.1998,0.1999,0.201,0.2011,0.1994,0.1994,0.1994,0,0,0.1789,0.1804,0.1813,0.1837,0.185,0.1865,0.1866,0.1882,0.1893,0.1901,0.1921,0.1931,0.1948,0.1968,0.1978,0.1977,0.2005,0.1999,0.1999,0.2,0.2011,0.2013,0.2014,0.1995,0.1995,0.1995,0,0,0.1801,0.1814,0.1829,0.1841,0.1859,0.1869,0.1873,0.1892,0.1899,0.1919,0.1925,0.1939,0.1966,0.1978,0.1988,0.2004,0.2007,0.2008,0.2012,0.2022,0.2024,0.2025,0.203,0.2032,0.201,0.201,0.201,0,0.1801,0.1825,0.1836,0.1852,0.1862,0.187,0.1885,0.1896,0.1919,0.1926,0.1925,0.1959,0.1971,0.1993,0.1997,0.2005,0.2009,0.2006,0.2023,0.2024,0.2025,0.203,0.2032,0.201,0.201,0.201,0.201,0,0.1824,0.184,0.185,0.1871,0.1883,0.1898,0.1911,0.1922,0.1927,0.1937,0.1957,0.1972,0.1991,0.1997,0.2003,0.202,0.2019,0.202,0.2018,0.2027,0.2032,0.2034,0.201,0.201,0.201,0.201,0,0,0.1832,0.186,0.1863,0.1872,0.1893,0.1906,0.1921,0.1939,0.1947,0.1963,0.1976,0.1998,0.1999,0.201,0.2018,0.2027,0.2038,0.2027,0.2028,0.2028,0.2057,0.2055,0.2058,0.2041,0.2041,0.2041,0.2055,0,0.1846,0.1874,0.1884,0.1907,0.1922,0.1929,0.1943,0.1957,0.1966,0.198,0.1991,0.2006,0.2007,0.2013,0.2023,0.2034,0.2044,0.2034,0.2052,0.2053,0.2047,0.206,0.2059,0.2071,0.2057,0.2058,0.2058,0,0.1866,0.1881,0.1905,0.1923,0.193,0.1942,0.1959,0.1972,0.1988,0.1994,0.2006,0.2013,0.2029,0.2026,0.2049,0.2041,0.205,0.2057,0.2057,0.2059,0.2056,0.2062,0.2075,0.2077,0.2061,0.2061,0.2061,0,0.1868,0.1895,0.1913,0.1921,0.1943,0.1951,0.196,0.1976,0.1986,0.2001,0.2008,0.2024,0.2034,0.2046,0.2057,0.2054,0.2078,0.2077,0.2084,0.2083,0.2088,0.2087,0.2103,0.2094,0.2094,0.2094,0.2094,0,0.1882,0.1896,0.1914,0.1925,0.1941,0.1953,0.1968,0.1978,0.1992,0.2005,0.2013,0.2025,0.2039,0.2052,0.2061,0.2078,0.2082,0.2088,0.209,0.2087,0.2086,0.2092,0.2091,0.2095,0.2095,0.2095,0.2095,0,0.1888,0.19,0.192,0.1939,0.1944,0.1955,0.1972,0.1982,0.1992,0.2008,0.2013,0.2028,0.2045,0.2057,0.2078,0.2084,0.2102,0.2104,0.2096,0.2097,0.2103,0.2102,0.2122,0.2125,0.2116,0.2116,0.2116,0,0.1895,0.1906,0.1927,0.1936,0.1945,0.196,0.197,0.1982,0.1993,0.2011,0.202,0.2037,0.2051,0.2076,0.2089,0.2106,0.2108,0.2114,0.2111,0.2107,0.2108,0.2107,0.2108,0.2114,0.2114,0.2115,0.2115,0,0.1907,0.1913,0.1927,0.1944,0.1956,0.1969,0.1983,0.199,0.2005,0.2016,0.2032,0.2043,0.2065,0.2081,0.2099,0.2109,0.2114,0.2116,0.2118,0.2115,0.2109,0.2112,0.2097,0.2115,0.2115,0.2115,0.2115,0.2115,0.1913,0.1923,0.1939,0.1955,0.1967,0.1979,0.199,0.2001,0.2015,0.2034,0.204,0.2057,0.2073,0.2097,0.2107,0.212,0.212,0.2124,0.2125,0.2125,0.2125,0.2107,0.2123,0.2123,0.2123,0.2123,0.2124,0,0.1925,0.1936,0.195,0.1969,0.1981,0.1985,0.2001,0.201,0.2025,0.2039,0.2053,0.2072,0.2088,0.2102,0.2119,0.2127,0.213,0.2131,0.213,0.2132,0.2124,0.212,0.2128,0.2128,0.2128,0.2128,0.2128,0.2128,0.1933,0.1949,0.1957,0.1979,0.199,0.2007,0.2015,0.2027,0.2038,0.2058,0.2072,0.2081,0.2095,0.2113,0.2128,0.2132,0.2137,0.2137,0.2142,0.2134,0.2133,0.2132,0.2128,0.2139,0.2139,0.2149,0.2149,0.2149]},{"header":{"parameterUnit":"m.s-1","parameterCategory":1,"la1":30.2991,"la2":30.254,"lo1":-89.0895,"lo2":-89.0444,"dy":0.0017,"dx":0.0017,"nx":28,"ny":28,"refTime":"2024-05-28T21:00:00:Z","depth":0,"parameterNumber":3,"parameterNumberName":"V-component_of_WINDS"},"data":[0,0,0,0,0,0,0,0,0,0,0,0,0,0,0,0,0,0,0,0,0,0,0,0,0,0,0,0,0,0,0,0,0,0,0,0,0,0,0,0,0,0,0,0,0,0,0,0,0,0,0,0,0,0,0,0,0,0,0.7827,0.7827,0,0.78,0.7799,0.7799,0.7776,0.7776,0.7775,0.7775,0.7747,0.7747,0.7746,0,0,0,0,0,0,0,0,0,0,0,0,0,0.786,0.786,0.7827,0.7827,0.7827,0.78,0.7799,0.7799,0.7776,0.7776,0.7775,0.7775,0.7748,0.7747,0.7746,0,0,0,0,0,0,0,0,0,0,0,0,0,0.7841,0.786,0.7827,0.7812,0.781,0.78,0.7799,0.7799,0.7776,0.7776,0.7775,0.7775,0.7748,0.7747,0.7746,0.7749,0,0,0.7744,0.7744,0,0,0,0,0,0,0,0,0.7842,0.784,0.7814,0.7813,0.7811,0.7791,0.7801,0.7782,0.7776,0.7789,0.7775,0.7775,0.7762,0.776,0.7756,0.7748,0.7747,0.7744,0.7744,0.7743,0.7743,0,0,0,0,0,0,0,0.7843,0.7841,0.7816,0.7814,0.7812,0.7806,0.7803,0.7797,0.7778,0.7788,0.7786,0.7783,0.7761,0.7757,0.7755,0.7746,0.7744,0.7743,0.7743,0.7743,0.774,0.774,0,0,0,0,0,0,0.7847,0.7842,0.7817,0.7816,0.7826,0.7806,0.7803,0.7798,0.7778,0.7775,0.7783,0.7782,0.7758,0.7756,0.7754,0.7756,0.7743,0.7743,0.7742,0.7739,0.774,0.774,0,0,0,0,0,0,0.7848,0.7845,0.7818,0.7828,0.7824,0.7806,0.7801,0.7797,0.7793,0.7775,0.7771,0.7782,0.7758,0.7755,0.7751,0.7755,0.7742,0.7741,0.7739,0.7739,0.774,0.776,0,0,0,0,0,0,0.7849,0.7845,0.7846,0.7828,0.7824,0.7815,0.7801,0.7797,0.7792,0.779,0.7773,0.777,0.7757,0.7752,0.775,0.7753,0.7741,0.7738,0.7739,0.774,0.7759,0.7761,0.7763,0,0,0,0,0,0.785,0.7853,0.7846,0.7844,0.7825,0.7816,0.7813,0.7799,0.7792,0.7793,0.7781,0.777,0.7755,0.7752,0.7749,0.7753,0.7738,0.7739,0.774,0.7758,0.7761,0.7763,0,0,0,0,0,0,0.7872,0.7851,0.7843,0.784,0.783,0.7812,0.7812,0.7802,0.7793,0.7792,0.7775,0.7771,0.7768,0.776,0.7757,0.7754,0.7745,0.7745,0.776,0.7762,0.7764,0.7766,0.774,0,0,0,0,0,0.7877,0.7871,0.7852,0.7852,0.7847,0.7831,0.7826,0.7816,0.7805,0.78,0.7788,0.7778,0.777,0.7766,0.7758,0.7758,0.7754,0.7759,0.7761,0.7763,0.7763,0.7762,0.7765,0.7743,0.7743,0.7743,0,0,0.7886,0.7873,0.7871,0.7856,0.7847,0.7841,0.7827,0.7822,0.7818,0.7799,0.7794,0.7785,0.7772,0.777,0.7768,0.7763,0.7769,0.7764,0.7766,0.7765,0.7764,0.7766,0.7767,0.7743,0.7743,0.7743,0,0,0.79,0.789,0.7888,0.7879,0.7865,0.7854,0.7854,0.7837,0.7831,0.7825,0.7811,0.7806,0.7794,0.7786,0.778,0.7791,0.7781,0.7789,0.78,0.7799,0.7801,0.7802,0.7806,0.7807,0.779,0.779,0.779,0,0.7913,0.7904,0.7889,0.7884,0.7878,0.7861,0.7859,0.7852,0.7836,0.7832,0.7827,0.7811,0.7802,0.7797,0.7799,0.7795,0.7794,0.779,0.7802,0.7803,0.7804,0.7807,0.7809,0.7791,0.7791,0.7791,0.779,0,0.7921,0.7915,0.7915,0.79,0.7894,0.7891,0.7876,0.7871,0.7862,0.7852,0.7846,0.7834,0.7824,0.7822,0.7813,0.7816,0.7813,0.7805,0.7795,0.7808,0.781,0.7812,0.7792,0.7792,0.7792,0.7791,0,0,0.7947,0.7924,0.7924,0.7917,0.7901,0.7896,0.7893,0.7882,0.7879,0.7869,0.7865,0.7856,0.7848,0.7841,0.7831,0.7831,0.784,0.7823,0.7822,0.7826,0.7842,0.7848,0.785,0.7833,0.7833,0.7834,0.7843,0,0.7958,0.795,0.7936,0.7932,0.7927,0.7911,0.7908,0.7898,0.7888,0.7882,0.7872,0.7865,0.7856,0.7851,0.785,0.7839,0.7843,0.7838,0.783,0.783,0.7833,0.7851,0.7857,0.7867,0.7844,0.7844,0.7845,0,0.7969,0.796,0.7955,0.794,0.7937,0.7934,0.7923,0.7918,0.7906,0.7899,0.7892,0.7881,0.7876,0.7868,0.7862,0.7859,0.7855,0.7849,0.7849,0.7847,0.7837,0.7849,0.787,0.7871,0.7846,0.7846,0.7846,0,0.7988,0.7974,0.797,0.7965,0.7946,0.7945,0.7937,0.7925,0.792,0.7911,0.7907,0.7898,0.7893,0.7886,0.7873,0.7868,0.7868,0.7858,0.7862,0.7862,0.7862,0.7862,0.7881,0.786,0.786,0.786,0.786,0,0.8001,0.7999,0.7978,0.7976,0.7973,0.7957,0.7955,0.7946,0.7936,0.7931,0.7917,0.7914,0.7897,0.7891,0.7881,0.7877,0.7875,0.7869,0.7866,0.787,0.7871,0.7867,0.7865,0.7861,0.7861,0.786,0.786,0,0.8021,0.8007,0.8002,0.7985,0.798,0.7979,0.7965,0.7961,0.7951,0.7946,0.7944,0.7928,0.792,0.7907,0.7896,0.7889,0.7887,0.7882,0.7891,0.7889,0.7893,0.7893,0.791,0.7912,0.789,0.7891,0.7891,0,0.803,0.8028,0.8011,0.8007,0.7999,0.7993,0.7987,0.7972,0.7967,0.7954,0.7952,0.7944,0.7936,0.7925,0.7913,0.7904,0.7899,0.7906,0.7898,0.7901,0.7899,0.7899,0.7898,0.7907,0.7908,0.7908,0.7908,0,0.8047,0.804,0.8033,0.8023,0.8016,0.8008,0.7999,0.7996,0.7979,0.7974,0.7966,0.796,0.7949,0.7941,0.793,0.7923,0.7913,0.7911,0.7911,0.7915,0.7919,0.7916,0.7895,0.791,0.791,0.791,0.791,0.791,0.8062,0.8059,0.8046,0.8038,0.803,0.8022,0.8018,0.8007,0.8,0.7989,0.7981,0.7974,0.7963,0.7948,0.7941,0.7935,0.793,0.7931,0.7931,0.7931,0.7933,0.7921,0.7933,0.7933,0.7933,0.7933,0.7933,0,0.8078,0.8069,0.8062,0.8049,0.8043,0.8034,0.8023,0.8019,0.8012,0.8002,0.7995,0.7986,0.7978,0.7966,0.7957,0.7954,0.795,0.7953,0.7952,0.7951,0.7938,0.7938,0.7957,0.7957,0.7957,0.7957,0.7957,0.7957,0.8085,0.808,0.8072,0.8063,0.8054,0.8047,0.8041,0.8034,0.8026,0.8016,0.8009,0.8001,0.799,0.798,0.7973,0.7969,0.7967,0.7971,0.7966,0.7954,0.7952,0.795,0.795,0.7971,0.7971,0.7979,0.798,0.798]}]]